Location: ??
(35.5052°N, 139.7262°E)
Time: 02:32:01
(UTC+00:00)

CZ-4C R/B - Pass Details

Date: 20 June 2021
Orbit: 606 x 1395 km, 63.4° (Epoch: 26 July)

Event Time Altitude Azimuth Distance (km) Brightness Sun altitude
Exits shadow 16:57:54 40° 146° (SSE) 1,007 2.4 -22.9°
Maximum altitude 16:58:50 45° 114° (ESE) 948 2.5 -22.8°
Drops below altitude 10° 17:03:50 10° 43° (NE) 2,354 5.6 -22.3°
Sets 17:06:34 0° 38° (NE) 3,413 6.9 -21.9°
